Location: Misciano
(43.5000°N, 11.9500°E)
Time: 21:54:42
(UTC+00:00)

Cosmos 540 Rocket - Pass Details

Date: 13 August 2020
Orbit: 740 x 754 km, 74.1° (Epoch: 22 September)

Event Time Altitude Azimuth Distance (km) Brightness Sun altitude
Rises 21:22:14 0° 336° (NNW) 3,212 8.0 -26.5°
Reaches altitude 10° 21:24:37 10° 333° (NNW) 2,284 7.0 -26.7°
Maximum altitude 21:29:42 60° 254° (WSW) 864 3.7 -27.2°
Enters shadow 21:29:43 60° 254° (WSW) 864 3.7 -27.2°
